Flag for Hong Kong Weather past 2 weeks in Kowloon, Hong Kong

82 °F

Passing clouds.

Feels Like: 85 °F
Forecast: 74 / 82 °F
Wind: 8 mph from Northeast

Location: National Airport

Current Time: Oct 9, 2015 at 9:58:11 PM

Latest Report: Oct 9, 2015 at 9:30 PM

Visibility: N/A

Pressure: 29.92 "Hg

Humidity: 58%

Dew point: 66 °F

Location of KowloonLocation

Historic Weather in Kowloon — Graph


Kowloon temperature yesterday

Maximum temperature yesterday: 88 °F (at 2:00 PM)
Minimum temperature yesterday: 79 °F (at 5:00 AM)
Average temperature yesterday: 83 °F

Past Weeks' High & Low Weather Summary

High93 °F (Sep 26, 2:00 PM)94% (Oct 3, 10:00 PM)30.01 "Hg (Oct 3, 10:00 PM)
Low77 °F (Oct 3, 10:00 PM)38% (Sep 29, 2:30 AM)29.59 "Hg (Sep 25, 4:30 PM)
Average84 °F71%29.83 "Hg
* Reported Sep 24 9:00 PM — Oct 9 9:00 PM, Kowloon, Weather by CustomWeather, © 2015

Note: Actual official high and low records may vary slightly from our data, if they occured in-between our weather recording intervals... More about our weather records


Kowloon weather history for previous 24 hours

Time TempWeatherWind HumidityBarometerVisibility
9:00 PM
Fri, Oct 9
82 °FPassing clouds.9 mph58%29.92 "HgN/A
8:30 PM82 °FPassing clouds.9 mph58%29.89 "HgN/A
8:00 PM84 °FPassing clouds.8 mph58%29.89 "HgN/A
7:30 PM84 °FPassing clouds.10 mph58%29.86 "HgN/A
7:00 PM84 °FPassing clouds.12 mph62%29.86 "HgN/A
6:30 PM84 °FPassing clouds.12 mph62%29.86 "HgN/A
6:00 PM84 °FPassing clouds.12 mph58%29.83 "HgN/A
5:30 PM84 °FPassing clouds.13 mph58%29.83 "HgN/A
5:00 PM84 °FPassing clouds.14 mph58%29.83 "HgN/A
4:30 PM84 °FPassing clouds.14 mph58%29.83 "HgN/A
4:00 PM84 °FPassing clouds.14 mph58%29.83 "HgN/A
3:30 PM84 °FScattered clouds.14 mph58%29.83 "HgN/A
3:00 PM84 °FPassing clouds.15 mph58%29.83 "HgN/A
2:30 PM84 °FPassing clouds.15 mph58%29.83 "HgN/A
2:00 PM84 °FPassing clouds.15 mph58%29.83 "HgN/A
1:30 PM84 °FPassing clouds.15 mph58%29.83 "HgN/A
1:00 PM84 °FPassing clouds.14 mph58%29.86 "HgN/A
12:30 PM84 °FPassing clouds.13 mph58%29.86 "HgN/A
12:00 PM84 °FPassing clouds.14 mph58%29.89 "HgN/A
11:30 AM84 °FPassing clouds.10 mph55%29.89 "HgN/A
11:00 AM84 °FPassing clouds.12 mph55%29.89 "HgN/A
10:30 AM84 °FPassing clouds.10 mph51%29.89 "HgN/A
10:00 AM82 °FSunny.7 mph58%29.89 "Hg10 mi
9:30 AM82 °FPassing clouds.5 mph55%29.89 "HgN/A
9:00 AM81 °FSunny.8 mph66%29.89 "Hg10 mi
8:30 AM81 °FPassing clouds.8 mph62%29.89 "HgN/A
8:00 AM81 °FPassing clouds.8 mph62%29.89 "HgN/A
7:30 AM79 °FPassing clouds.8 mph65%29.86 "HgN/A
7:00 AM79 °FPassing clouds.8 mph65%29.86 "HgN/A
6:30 AM79 °FPassing clouds.8 mph70%29.86 "HgN/A
6:00 AM79 °FPassing clouds.10 mph70%29.86 "HgN/A
5:30 AM79 °FPassing clouds.13 mph70%29.83 "HgN/A
5:00 AM79 °FPassing clouds.12 mph70%29.83 "HgN/A
4:30 AM79 °FPassing clouds.10 mph70%29.83 "HgN/A
4:00 AM81 °FPassing clouds.9 mph66%29.83 "HgN/A
3:30 AM81 °FPassing clouds.9 mph66%29.83 "HgN/A
3:00 AM81 °FPassing clouds.9 mph66%29.83 "HgN/A
2:30 AM81 °FPassing clouds.7 mph66%29.83 "HgN/A
2:00 AM81 °FPassing clouds.8 mph70%29.83 "HgN/A
1:30 AM81 °FPassing clouds.8 mph70%29.83 "HgN/A
1:00 AM81 °FPassing clouds.12 mph70%29.83 "HgN/A
12:30 AM81 °FPassing clouds.13 mph70%29.86 "HgN/A
12:00 AM82 °FPassing clouds.17 mph66%29.86 "HgN/A
11:30 PM
Thu, Oct 8
82 °FPassing clouds.16 mph66%29.86 "HgN/A
11:00 PM82 °FPassing clouds.13 mph66%29.86 "HgN/A
10:30 PM84 °FPassing clouds.13 mph58%29.86 "HgN/A
10:00 PM84 °FPassing clouds.14 mph62%29.86 "HgN/A
9:30 PM84 °FPassing clouds.12 mph58%29.86 "HgN/A
9:00 PM84 °FPassing clouds.17 mph62%29.86 "HgN/A
Weather by CustomWeather, © 2015

See weather overviewHow to use our weather pages